Location: Prairie State College
(41.5244°N, 87.6382°W)
Time: 22:21:26
(UTC-06:00)

Amateur Radio Satellites - All Passes

Search period start: 06 March 2015 21:51
Search period end: 07 March 2015 21:51
Location: Prairie State College, 41.5244°N, 87.6382°W

Satellite Date Start Highest point End Downlink Frequencies (MHz)
Time Altitude Azimuth
DUCHIFAT 1 06 Mar 22:00:46 22:03:36 18° 92° (E) 22:06:33 145.980
UWE-3 06 Mar 22:05:00 22:08:13 19° 267° (W) 22:11:18 435.000/436.395/437.385
ESTCUBE 1 06 Mar 22:13:10 22:17:42 79° 76° (ENE) 22:22:16 437.505/2401.250
UNISAT 6 06 Mar 22:19:07 22:23:23 55° 100° (E) 22:27:42 437.425
POPSAT HIP 1 06 Mar 22:23:53 22:27:41 33° 96° (E) 22:31:30 437.405
POLYITAN 1 06 Mar 22:25:42 22:29:34 35° 97° (E) 22:33:27 437.675
DANDE 06 Mar 22:35:49 22:41:14 32° 96° (E) 22:45:33 436.750
HUMSAT D 06 Mar 22:38:23 22:41:22 18° 268° (W) 22:44:12 437.325/437.525
CUSAT 1 06 Mar 22:38:28 22:43:47 39° 97° (E) 22:47:53 437.405
RS-15 06 Mar 22:40:20 22:51:15 87° 121° (ESE) 23:02:22 29.354- 29.394
TIGRISAT 06 Mar 22:41:53 22:46:12 84° 284° (WNW) 22:50:35 435.000
NANOSAT C BR1 06 Mar 22:44:57 22:49:07 58° 100° (E) 22:53:15 145.865
GONETS M04 06 Mar 22:47:27 22:55:03 32° 292° (WNW) 23:02:30
CUBEBUG 1 06 Mar 22:57:12 23:01:22 38° 263° (W) 23:05:31 437.445
TISAT 1 06 Mar 22:58:08 23:02:16 49° 73° (ENE) 23:06:25 437.305
ANTELSAT 06 Mar 22:58:12 23:02:25 54° 286° (WNW) 23:06:42 437.575/2403.000
BUGSAT 1 06 Mar 23:05:07 23:09:16 73° 101° (E) 23:13:20 437.445
SWISSCUBE 06 Mar 23:10:12 23:12:28 14° 62° (ENE) 23:14:57 437.505
SPROUT 06 Mar 23:10:42 23:15:02 76° 76° (ENE) 23:19:23 437.525
AISAT 06 Mar 23:12:34 23:14:34 12° 271° (W) 23:16:20 437.250
BEESAT 06 Mar 23:17:36 23:20:10 15° 63° (ENE) 23:22:56 436.000
QB50P1 06 Mar 23:19:07 23:23:17 56° 286° (WNW) 23:27:24 145.935-145.965
BEESAT 2 06 Mar 23:20:27 23:22:48 15° 40° (NE) 23:25:15 435.950
VELOX 1 06 Mar 23:20:57 23:21:56 10° 273° (W) 23:22:38 145.980
QB50P2 06 Mar 23:24:42 23:28:47 48° 287° (WNW) 23:32:51 145.880/145.840
DUCHIFAT 1 06 Mar 23:35:44 23:39:39 37° 288° (WNW) 23:43:31 145.980
AIST 2 06 Mar 23:44:37 23:46:02 12° 36° (NE) 23:47:36 435.215
ITUPSAT 1 06 Mar 23:46:21 23:50:20 27° 68° (ENE) 23:54:25 437.325
UNISAT 6 06 Mar 23:57:24 23:59:48 14° 295° (WNW) 00:02:02 437.425
SO-50 06 Mar 23:59:33 00:03:58 51° 118° (ESE) 00:08:36 436.795
POPSAT HIP 1 07 Mar 00:00:11 00:03:26 21° 292° (WNW) 00:06:35 437.405
POLYITAN 1 07 Mar 00:02:10 00:05:19 20° 293° (WNW) 00:08:21 437.675
DANDE 07 Mar 00:19:13 00:24:33 30° 284° (WNW) 00:28:39 436.750
NANOSAT C BR1 07 Mar 00:22:29 00:24:34 13° 296° (WNW) 00:26:27 145.865
Oscar 19 07 Mar 00:22:30 00:26:06 20° 91° (E) 00:29:52 437.125/150
CUSAT 1 07 Mar 00:22:30 00:26:36 21° 286° (WNW) 00:29:51 437.405
BEESAT 3 07 Mar 00:26:28 00:30:35 61° 55° (NE) 00:34:37 437.485
TISAT 1 07 Mar 00:35:57 00:38:25 14° 270° (W) 00:40:41 437.305
BUGSAT 1 07 Mar 00:43:26 00:44:13 10° 297° (WNW) 00:44:47 437.445
SWISSCUBE 07 Mar 00:45:02 00:49:48 72° 257° (WSW) 00:54:37 437.505
YUBILEINY 07 Mar 00:50:44 00:56:35 20° 60° (ENE) 01:02:48 435.215
BEESAT 07 Mar 00:52:49 00:57:33 65° 259° (W) 01:02:20 436.000
RS-15 07 Mar 00:55:33 01:05:13 33° 328° (NNW) 01:14:57 29.354- 29.394
BEESAT 2 07 Mar 00:57:22 01:01:32 74° 240° (WSW) 01:05:37 435.950
STARS 07 Mar 01:20:32 01:24:23 31° 70° (ENE) 01:28:19 437.465
AIST 2 07 Mar 01:21:11 01:25:29 74° 56° (NE) 01:29:40 435.215
ITUPSAT 1 07 Mar 01:23:49 01:28:09 33° 264° (W) 01:32:28 437.325
KKS-1 07 Mar 01:24:39 01:29:00 53° 73° (ENE) 01:33:23 437.445
SO-50 07 Mar 01:41:04 01:44:50 23° 318° (NW) 01:48:39 436.795
Oscar 19 07 Mar 02:00:50 02:05:48 50° 289° (WNW) 02:10:44 437.125/150
BEESAT 3 07 Mar 02:06:23 02:08:12 12° 250° (WSW) 02:09:50 437.485
ITAMSAT 1 07 Mar 02:09:34 02:14:48 67° 102° (ESE) 02:19:58 435.822/435.867
Gurwin Techsat 1B 07 Mar 02:09:43 02:14:54 51° 99° (E) 02:20:05 435.225
AO-7 07 Mar 02:16:51 02:19:51 13° 84° (E) 02:23:34 29.400- 29.500
AUBIESAT-1 07 Mar 02:20:10 02:21:41 13° 59° (ENE) 02:23:23 437.475
M-CUBED/EXP-1 PRIME 07 Mar 02:21:53 02:23:50 15° 61° (ENE) 02:25:58 437.505
PCSat 07 Mar 02:38:18 02:40:50 13° 37° (NE) 02:43:33 145.827
YUBILEINY 07 Mar 02:45:59 02:54:53 90° 47° (NE) 03:03:44 435.215
STARS 07 Mar 02:57:14 03:00:54 24° 266° (W) 03:04:30 437.465
AIST 2 07 Mar 03:02:24 03:03:33 11° 251° (WSW) 03:04:25 435.215
KKS-1 07 Mar 03:03:26 03:06:02 15° 270° (W) 03:08:26 437.445
MOZHAYETS 4 07 Mar 03:10:45 03:14:50 34° 71° (ENE) 03:19:01
RS-15 07 Mar 03:14:24 03:22:19 21° 2° (N) 03:30:28 29.354- 29.394
HORYU 2 07 Mar 03:20:31 03:24:58 69° 102° (ESE) 03:29:25 437.375
ITAMSAT 1 07 Mar 03:50:30 03:53:49 17° 298° (WNW) 03:56:55 435.822/435.867
Gurwin Techsat 1B 07 Mar 03:50:32 03:54:34 22° 296° (WNW) 03:58:26 435.225
JAS-2 07 Mar 03:53:02 04:00:28 54° 98° (E) 04:08:10 435.910
AUBIESAT-1 07 Mar 03:53:04 03:56:14 40° 257° (WSW) 03:59:36 437.475
M-CUBED/EXP-1 PRIME 07 Mar 03:55:30 03:58:33 32° 258° (WSW) 04:01:44 437.505
AO-7 07 Mar 04:06:01 04:14:20 73° 105° (ESE) 04:22:36 29.400- 29.500
PRISM 07 Mar 04:08:05 04:08:07 10° 62° (ENE) 04:08:22 437.425
STRAND 1 07 Mar 04:15:41 04:16:10 10° 58° (ENE) 04:16:58 437.568
PCSat 07 Mar 04:19:58 04:25:23 68° 58° (ENE) 04:30:47 145.827
YUBILEINY 07 Mar 04:44:58 04:50:38 18° 281° (W) 04:55:48 435.215
CUTE-I 07 Mar 04:45:20 04:46:14 11° 86° (E) 04:47:32 437.470
MOZHAYETS 4 07 Mar 04:48:30 04:52:11 23° 267° (W) 04:55:47
HORYU 2 07 Mar 04:59:06 05:01:08 13° 297° (WNW) 05:02:58 437.375
CUBESAT XI-V 07 Mar 05:22:58 05:27:36 65° 75° (ENE) 05:32:19 437.345
RS-15 07 Mar 05:29:01 05:39:13 37° 36° (NE) 05:49:58 29.354- 29.394
JAS-2 07 Mar 05:38:31 05:45:15 35° 295° (WNW) 05:52:05 435.910
PRISM 07 Mar 05:38:53 05:43:02 78° 256° (WSW) 05:47:15 437.425
STRAND 1 07 Mar 05:49:27 05:54:36 76° 75° (ENE) 05:59:47 437.568
AIST 1 07 Mar 05:51:51 05:55:53 38° 92° (E) 06:00:00
AO-7 07 Mar 05:59:47 06:06:31 28° 304° (NW) 06:13:01 29.400- 29.500
PCSat 07 Mar 06:04:51 06:08:18 17° 254° (WSW) 06:11:32 145.827
ISS 07 Mar 06:13:32 06:16:09 23° 135° (SE) 06:18:48 145.825
Cubesat XI-IV 07 Mar 06:14:19 06:19:43 78° 103° (ESE) 06:25:05 437.490
CUTE-I 07 Mar 06:21:49 06:27:12 89° 92° (E) 06:32:34 437.470
SO-50 07 Mar 06:52:37 06:53:47 11° 30° (NNE) 06:55:07 436.795
GONETS M04 07 Mar 06:59:36 07:06:47 29° 66° (ENE) 07:14:14
CUBESAT XI-V 07 Mar 07:03:21 07:05:36 13° 272° (W) 07:07:36 437.345
AIST 1 07 Mar 07:30:39 07:33:47 18° 290° (WNW) 07:36:48
CUTE 1.7 + AOD 2 07 Mar 07:31:36 07:33:06 12° 88° (E) 07:34:50 437.475
STRAND 1 07 Mar 07:32:05 07:34:29 13° 273° (W) 07:36:34 437.568
RS-15 07 Mar 07:41:27 07:52:55 79° 241° (WSW) 08:04:52 29.354- 29.394
HO-68 07 Mar 07:45:04 07:50:59 28° 93° (E) 07:57:03 435.675
ISS 07 Mar 07:49:21 07:52:27 41° 331° (NNW) 07:55:32 145.825
AAUSAT CUBESAT 2 07 Mar 07:56:02 07:58:00 13° 89° (E) 08:00:10 437.432
Cubesat XI-IV 07 Mar 07:56:09 07:59:15 15° 299° (WNW) 08:02:05 437.490
GOMX 1 07 Mar 08:00:55 08:04:31 27° 94° (E) 08:08:06 467.674
O/OREOS (USA 219) 07 Mar 08:01:24 08:05:55 70° 110° (ESE) 08:10:31 437.305
COMPASS 1 07 Mar 08:01:57 08:04:49 18° 91° (E) 08:07:49 437.405
CUTE-I 07 Mar 08:04:04 08:06:37 13° 300° (WNW) 08:08:53 437.470
DOVE 4 07 Mar 08:11:48 08:15:11 24° 94° (E) 08:18:34 437.250
BRITE-PL 07 Mar 08:21:36 08:26:01 73° 101° (E) 08:30:12 437.365/2234.400
ANTELSAT 07 Mar 08:23:20 08:25:18 13° 64° (ENE) 08:27:27 437.575/2403.000
Oscar 11 07 Mar 08:25:35 08:27:45 14° 89° (E) 08:30:08 145.826/435.025
SO-50 07 Mar 08:30:46 08:35:34 50° 52° (NE) 08:40:22 436.795
DELFI C3 07 Mar 08:33:39 08:35:21 13° 89° (E) 08:37:15 145.870
SEEDS 07 Mar 08:35:59 08:40:09 53° 99° (E) 08:44:18 437.485
QB50P1 07 Mar 08:39:47 08:40:39 11° 63° (ENE) 08:41:46 145.935-145.965
QB50P2 07 Mar 08:44:35 08:46:17 12° 64° (ENE) 08:48:12 145.880/145.840
CANX-2 07 Mar 08:47:23 08:51:40 85° 283° (WNW) 08:55:57 2200.000
DUCHIFAT 1 07 Mar 08:54:17 08:56:41 15° 65° (ENE) 08:59:16 145.980
GONETS M04 07 Mar 08:55:44 09:04:23 65° 267° (W) 09:13:00
DX 1 07 Mar 08:58:42 09:00:57 14° 90° (E) 09:03:24 434.975-435.025
CUTE 1.7 + AOD 2 07 Mar 09:05:17 09:09:30 59° 285° (WNW) 09:13:41 437.475
CUBEBUG 2 07 Mar 09:05:38 09:09:11 27° 95° (E) 09:12:49 437.445
POPSAT HIP 1 07 Mar 09:17:11 09:20:44 27° 69° (ENE) 09:24:22 437.405
CUSAT 1 07 Mar 09:17:53 09:19:04 12° 72° (ENE) 09:20:23 437.405
UNISAT 6 07 Mar 09:18:25 09:22:38 50° 73° (ENE) 09:26:49 437.425
CINEMA 3 07 Mar 09:18:52 09:23:02 73° 101° (E) 09:27:11 145.822/145.860
POLYITAN 1 07 Mar 09:19:13 09:22:52 28° 70° (ENE) 09:26:34 437.675
FUNcube-1 07 Mar 09:19:47 09:23:16 26° 95° (E) 09:26:51 145.935
UKube-1 07 Mar 09:20:42 09:24:10 23° 94° (E) 09:27:42 .
ZACube-1 07 Mar 09:22:52 09:26:29 29° 96° (E) 09:30:11 437.345
AISAT 07 Mar 09:26:08 09:27:38 12° 88° (E) 09:29:22 437.250
ISS 07 Mar 09:27:30 09:29:32 15° 351° (N) 09:31:32 145.825
AAUSAT CUBESAT 2 07 Mar 09:29:55 09:34:01 51° 286° (WNW) 09:38:06 437.432
HO-68 07 Mar 09:32:06 09:39:08 57° 292° (WNW) 09:46:06 435.675
VELOX 1 07 Mar 09:32:37 09:34:46 14° 89° (E) 09:37:08 145.980
COMPASS 1 07 Mar 09:36:47 09:40:42 37° 288° (WNW) 09:44:36 437.405
NANOSAT C BR1 07 Mar 09:37:43 09:41:46 44° 72° (ENE) 09:45:51 145.865
GOMX 1 07 Mar 09:39:08 09:42:39 24° 292° (WNW) 09:45:59 467.674
TIGRISAT 07 Mar 09:40:48 09:45:10 87° 77° (ENE) 09:49:29 435.000
O/OREOS (USA 219) 07 Mar 09:43:23 09:45:57 14° 310° (NW) 09:48:21 437.305
DOVE 4 07 Mar 09:49:25 09:53:00 27° 291° (WNW) 09:56:28 437.250
UWE-3 07 Mar 09:53:18 09:57:29 81° 102° (ESE) 10:01:41 435.000/436.395/437.385
BUGSAT 1 07 Mar 09:55:07 09:59:15 51° 74° (ENE) 10:03:25 437.445
RS-15 07 Mar 09:56:21 10:03:55 19° 259° (W) 10:10:49 29.354- 29.394
ANTELSAT 07 Mar 09:57:23 10:01:42 60° 259° (W) 10:05:58 437.575/2403.000
Oscar 11 07 Mar 10:00:06 10:04:19 52° 287° (WNW) 10:08:32 145.826/435.025
BRITE-PL 07 Mar 10:02:49 10:03:57 11° 299° (WNW) 10:04:49 437.365/2234.400
DELFI C3 07 Mar 10:06:56 10:10:56 51° 286° (WNW) 10:14:54 145.870
ESTCUBE 1 07 Mar 10:07:06 10:09:56 17° 90° (E) 10:12:56 437.505/2401.250
QB50P1 07 Mar 10:11:44 10:16:01 76° 258° (WSW) 10:20:18 145.935-145.965
SO-50 07 Mar 10:12:02 10:15:51 22° 248° (WSW) 10:19:31 436.795
SEEDS 07 Mar 10:13:15 10:15:35 14° 295° (WNW) 10:17:46 437.485
QB50P2 07 Mar 10:17:30 10:21:45 64° 259° (W) 10:26:00 145.880/145.840
HUMSAT D 07 Mar 10:20:58 10:25:06 69° 101° (E) 10:29:13 437.325/437.525
DUCHIFAT 1 07 Mar 10:28:02 10:32:12 50° 261° (W) 10:36:21 145.980
DX 1 07 Mar 10:33:20 10:37:35 51° 287° (WNW) 10:41:48 434.975-435.025
CUBEBUG 2 07 Mar 10:42:27 10:45:51 24° 291° (WNW) 10:49:12 437.445
CUBEBUG 1 07 Mar 10:45:57 10:50:04 37° 97° (E) 10:54:08 437.445
POPSAT HIP 1 07 Mar 10:52:56 10:56:36 27° 265° (W) 11:00:13 437.405
POLYITAN 1 07 Mar 10:55:14 10:58:48 25° 266° (W) 11:02:19 437.675
FUNcube-1 07 Mar 10:56:07 10:59:35 25° 291° (WNW) 11:03:02 145.935
UKube-1 07 Mar 10:56:32 11:00:23 31° 291° (WNW) 11:04:10 .
UNISAT 6 07 Mar 10:57:19 10:59:47 14° 270° (W) 11:02:03 437.425
GONETS M04 07 Mar 10:57:30 10:59:41 11° 285° (WNW) 11:01:06
50 SAT 07 Mar 10:58:37 11:02:32 60° 285° (WNW) 11:06:27 437.505
SPROUT 07 Mar 10:59:14 11:01:07 13° 89° (E) 11:03:14 437.525
CINEMA 3 07 Mar 10:59:22 10:59:45 10° 297° (WNW) 10:59:54 145.822/145.860
ZACube-1 07 Mar 10:59:26 11:02:47 23° 291° (WNW) 11:06:05 437.345
CUSAT 1 07 Mar 11:00:20 11:01:51 14° 265° (W) 11:03:22 437.405
AISAT 07 Mar 11:00:22 11:04:47 64° 285° (WNW) 11:09:08 437.250
DANDE 07 Mar 11:00:59 11:02:56 18° 265° (W) 11:04:55 436.750
ISS 07 Mar 11:04:49 11:06:54 16° 11° (N) 11:09:01 145.825
VELOX 1 07 Mar 11:07:25 11:11:47 55° 287° (WNW) 11:16:05 145.980
NANOSAT C BR1 07 Mar 11:15:10 11:17:54 16° 269° (W) 11:20:29 145.865
HO-68 07 Mar 11:23:14 11:25:31 11° 310° (NW) 11:27:22 435.675
BUGSAT 1 07 Mar 11:32:47 11:35:06 14° 270° (W) 11:37:14 437.445
Oscar 19 07 Mar 11:39:21 11:43:43 30° 67° (ENE) 11:48:10 437.125/150
ESTCUBE 1 07 Mar 11:42:45 11:47:09 48° 288° (WNW) 11:51:30 437.505/2401.250
ITAMSAT 1 07 Mar 11:51:28 11:54:00 14° 61° (ENE) 11:56:46 435.822/435.867
Gurwin Techsat 1B 07 Mar 11:55:25 11:56:58 11° 59° (ENE) 11:58:48 435.225
HUMSAT D 07 Mar 11:59:19 12:00:24 11° 296° (WNW) 12:01:16 437.325/437.525
TISAT 1 07 Mar 12:18:22 12:22:36 90° 356° (N) 12:26:48 437.305
CUBEBUG 1 07 Mar 12:22:55 12:26:13 20° 293° (WNW) 12:29:23 437.445
SPROUT 07 Mar 12:33:26 12:37:39 54° 286° (WNW) 12:41:49 437.525
ISS 07 Mar 12:40:48 12:43:57 47° 30° (NNE) 12:47:05 145.825
SWISSCUBE 07 Mar 12:45:43 12:49:53 29° 95° (E) 12:54:05 437.505
BEESAT 07 Mar 12:53:16 12:57:32 32° 96° (E) 13:01:50 436.000
AO-7 07 Mar 13:15:17 13:21:15 23° 54° (NE) 13:27:27 29.400- 29.500
Oscar 19 07 Mar 13:18:22 13:23:01 33° 264° (W) 13:27:38 437.125/150
ITUPSAT 1 07 Mar 13:23:42 13:28:31 64° 102° (ESE) 13:33:18 437.325
ITAMSAT 1 07 Mar 13:27:40 13:32:54 81° 258° (WSW) 13:38:11 435.822/435.867
Gurwin Techsat 1B 07 Mar 13:30:53 13:36:12 82° 76° (ENE) 13:41:34 435.225
YUBILEINY 07 Mar 13:53:29 13:59:18 21° 81° (E) 14:05:34 435.215
JAS-2 07 Mar 14:07:30 14:11:38 21° 59° (ENE) 14:16:19 435.910
ISS 07 Mar 14:17:43 14:20:11 20° 226° (SW) 14:22:35 145.825
HORYU 2 07 Mar 14:18:57 14:23:20 64° 74° (ENE) 14:27:44 437.375
BEESAT 3 07 Mar 14:23:28 14:24:20 11° 109° (ESE) 14:25:26 437.485
SWISSCUBE 07 Mar 14:23:30 14:27:45 31° 291° (WNW) 14:31:54 437.505
VERMONT LUNAR 07 Mar 14:24:20 14:26:50 19° 152° (SSE) 14:29:24 437.305
BEESAT 07 Mar 14:31:12 14:35:19 28° 292° (WNW) 14:39:21 436.000
STARS 07 Mar 14:46:01 14:50:22 59° 101° (E) 14:54:41 437.465
KKS-1 07 Mar 14:52:07 14:56:34 76° 285° (WNW) 15:00:58 437.445
BEESAT 2 07 Mar 14:52:50 14:55:49 20° 112° (ESE) 14:58:56 435.950
ITUPSAT 1 07 Mar 15:03:04 15:05:57 15° 297° (WNW) 15:08:39 437.325
AO-7 07 Mar 15:04:48 15:13:10 87° 252° (WSW) 15:21:34 29.400- 29.500
PHONESAT 2.4 07 Mar 15:06:53 15:09:33 20° 151° (SSE) 15:12:16 2401.200-2431.200
Gurwin Techsat 1B 07 Mar 15:14:42 15:16:57 12° 273° (W) 15:18:53 435.225
AIST 2 07 Mar 15:21:08 15:23:33 15° 110° (ESE) 15:26:08 435.215
AUBIESAT-1 07 Mar 15:34:27 15:36:41 14° 95° (E) 15:39:13 437.475
M-CUBED/EXP-1 PRIME 07 Mar 15:36:41 15:39:29 17° 97° (E) 15:42:32 437.505
YUBILEINY 07 Mar 15:46:27 15:55:13 80° 279° (W) 16:04:05 435.215
JAS-2 07 Mar 15:50:30 15:56:06 64° 260° (W) 16:02:28 435.910
BEESAT 3 07 Mar 15:57:49 16:01:54 71° 304° (NW) 16:06:03 437.485
HORYU 2 07 Mar 15:58:48 16:00:31 12° 272° (W) 16:01:59 437.375
Cubesat XI-IV 07 Mar 15:58:52 16:02:19 18° 62° (ENE) 16:05:57 437.490
VERMONT LUNAR 07 Mar 16:00:55 16:04:21 56° 167° (SSE) 16:07:47 437.305
AIST 1 07 Mar 16:01:22 16:02:12 11° 65° (ENE) 16:03:18
CUTE-I 07 Mar 16:05:49 16:09:35 20° 63° (ENE) 16:13:32 437.470
STARS 07 Mar 16:24:05 16:26:24 14° 296° (WNW) 16:28:32 437.465
BEESAT 2 07 Mar 16:29:51 16:33:45 39° 309° (NW) 16:37:42 435.950
O/OREOS (USA 219) 07 Mar 16:33:13 16:36:00 16° 52° (NE) 16:38:55 437.305
MOZHAYETS 4 07 Mar 16:42:16 16:46:56 83° 103° (ESE) 16:51:35
PHONESAT 2.4 07 Mar 16:44:02 16:47:37 57° 167° (SSE) 16:51:12 2401.200-2431.200
AIST 2 07 Mar 16:57:35 17:01:46 54° 306° (NW) 17:06:01 435.215
AO-7 07 Mar 17:01:59 17:07:17 17° 273° (W) 17:12:04 29.400- 29.500
AUBIESAT-1 07 Mar 17:07:30 17:11:52 63° 290° (WNW) 17:16:31 437.475
M-CUBED/EXP-1 PRIME 07 Mar 17:10:20 17:14:38 53° 292° (WNW) 17:19:12 437.505
CUBESAT XI-V 07 Mar 17:20:55 17:23:49 17° 90° (E) 17:26:52 437.345
PRISM 07 Mar 17:22:55 17:25:14 15° 91° (E) 17:27:43 437.425
AIST 1 07 Mar 17:36:07 17:40:31 71° 264° (W) 17:44:52
Cubesat XI-IV 07 Mar 17:36:37 17:41:57 65° 258° (WSW) 17:47:20 437.490
VERMONT LUNAR 07 Mar 17:38:39 17:42:09 75° 184° (S) 17:45:38 437.305
BEESAT 3 07 Mar 17:39:43 17:40:49 11° 324° (NW) 17:41:46 437.485
CUTE-I 07 Mar 17:44:01 17:49:18 56° 260° (W) 17:54:36 437.470
YUBILEINY 07 Mar 17:48:21 17:53:50 17° 303° (WNW) 17:58:52 435.215
BRITE-PL 07 Mar 17:56:53 17:58:53 12° 62° (ENE) 18:01:08 437.365/2234.400
STRAND 1 07 Mar 18:00:32 18:04:43 25° 93° (E) 18:08:57 437.568
O/OREOS (USA 219) 07 Mar 18:11:23 18:15:55 60° 251° (WSW) 18:20:23 437.305
HO-68 07 Mar 18:14:54 18:20:05 23° 58° (ENE) 18:25:29 435.675
MOZHAYETS 4 07 Mar 18:22:02 18:23:34 11° 298° (WNW) 18:24:53
PHONESAT 2.4 07 Mar 18:22:20 18:25:58 76° 185° (S) 18:29:37 2401.200-2431.200
COMPASS 1 07 Mar 18:54:46 18:56:46 14° 65° (ENE) 18:58:58 437.405
PRISM 07 Mar 18:56:58 19:01:03 47° 288° (WNW) 19:05:06 437.425
CUBESAT XI-V 07 Mar 18:57:03 19:01:38 51° 287° (WNW) 19:06:08 437.345
PCSat 07 Mar 19:01:35 19:06:53 61° 116° (ESE) 19:12:16 145.827
GOMX 1 07 Mar 19:08:21 19:13:05 36° 71° (ENE) 19:17:38 467.674
VERMONT LUNAR 07 Mar 19:16:36 19:19:51 36° 200° (SSW) 19:23:05 437.305
DOVE 4 07 Mar 19:17:06 19:21:23 30° 70° (ENE) 19:25:33 437.250
Oscar 11 07 Mar 19:21:45 19:23:19 12° 64° (ENE) 19:25:05 145.826/435.025
SEEDS 07 Mar 19:28:28 19:32:18 37° 72° (ENE) 19:36:12 437.485
BRITE-PL 07 Mar 19:31:14 19:36:49 86° 79° (E) 19:42:06 437.365/2234.400
STRAND 1 07 Mar 19:39:16 19:44:04 39° 291° (WNW) 19:48:47 437.568
CANX-2 07 Mar 19:40:24 19:44:35 69° 75° (ENE) 19:48:47 2200.000
DX 1 07 Mar 19:55:05 19:57:19 14° 64° (ENE) 19:59:44 434.975-435.025
CUTE 1.7 + AOD 2 07 Mar 19:58:07 20:02:20 82° 258° (WSW) 20:06:34 437.475
HO-68 07 Mar 20:00:02 20:07:11 75° 256° (WSW) 20:14:23 435.675
RS-15 07 Mar 20:00:36 20:04:46 14° 99° (E) 20:09:55 29.354- 29.394
PHONESAT 2.4 07 Mar 20:00:50 20:04:15 38° 200° (SSW) 20:07:38 2401.200-2431.200
GONETS M04 07 Mar 20:01:32 20:08:42 32° 85° (E) 20:16:07
CUBEBUG 2 07 Mar 20:04:23 20:07:59 25° 70° (ENE) 20:11:35 437.445
UKube-1 07 Mar 20:16:10 20:19:28 22° 67° (ENE) 20:22:52 .
FUNcube-1 07 Mar 20:16:16 20:19:34 23° 69° (ENE) 20:22:56 145.935
ZACube-1 07 Mar 20:19:28 20:22:56 25° 69° (ENE) 20:26:26 437.345
CINEMA 3 07 Mar 20:20:25 20:25:05 69° 75° (ENE) 20:29:32 145.822/145.860
AAUSAT CUBESAT 2 07 Mar 20:20:47 20:24:55 76° 258° (WSW) 20:29:05 437.432
AISAT 07 Mar 20:24:45 20:26:34 13° 63° (ENE) 20:28:36 437.250
COMPASS 1 07 Mar 20:28:02 20:32:06 53° 261° (W) 20:36:11 437.405
VELOX 1 07 Mar 20:31:02 20:33:18 14° 64° (ENE) 20:35:46 145.980
PCSat 07 Mar 20:46:28 20:50:47 23° 315° (NW) 20:55:00 145.827
GOMX 1 07 Mar 20:46:46 20:51:16 27° 266° (W) 20:55:30 467.674
UWE-3 07 Mar 20:50:31 20:54:52 67° 75° (ENE) 20:59:06 435.000/436.395/437.385
DOVE 4 07 Mar 20:54:40 20:59:07 30° 265° (W) 21:03:19 437.250
DELFI C3 07 Mar 20:54:43 20:58:45 84° 256° (WSW) 21:02:49 145.870
Oscar 11 07 Mar 20:54:45 20:59:01 67° 259° (WSW) 21:03:19 145.826/435.025
SEEDS 07 Mar 21:05:25 21:08:20 18° 269° (W) 21:11:07 437.485
ESTCUBE 1 07 Mar 21:07:28 21:10:16 17° 65° (ENE) 21:13:15 437.505/2401.250
HUMSAT D 07 Mar 21:13:06 21:17:06 49° 74° (ENE) 21:21:07 437.325/437.525
BRITE-PL 07 Mar 21:13:40 21:15:58 12° 273° (W) 21:17:54 437.365/2234.400
DX 1 07 Mar 21:28:49 21:33:09 59° 259° (WSW) 21:37:31 434.975-435.025
TIGRISAT 07 Mar 21:33:22 21:36:08 17° 91° (E) 21:39:04 435.000
CUBEBUG 2 07 Mar 21:40:45 21:44:38 29° 264° (W) 21:48:23 437.445
PHONESAT 2.4 07 Mar 21:41:28 21:42:07 10° 214° (SW) 21:42:40 2401.200-2431.200
CUBEBUG 1 07 Mar 21:42:21 21:46:19 33° 70° (ENE) 21:50:20 437.445
